Home   Weather   Raleigh   Past weeks

Flag for USA Past Weather in Raleigh, North Carolina, USA — Yesterday and Last 2 Weeks

Now
84 °F

Partly sunny.


Feels Like: 92 °F
Forecast: 78 / 95 °F
Wind: 10 mph from West

Location: Raleigh-Durham International Airport

Current Time: Jul 23, 2017 at 10:51:04 am

Latest Report: Jul 23, 2017 at 8:51 am


Visibility: 10 mi

Pressure: 29.87 "Hg

Humidity: 74%

Dew Point: 75 °F

Location of RaleighLocation

Past Weather in Raleigh — Graph

°F

Raleigh Temperature Yesterday

Maximum temperature yesterday: 99 °F (at 2:51 pm)
Minimum temperature yesterday: 76 °F (at 4:51 am)
Average temperature yesterday: 87 °F

High & Low Weather Summary for the Past Weeks

 TemperatureHumidityPressure
High99 °F (Jul 22, 2:51 pm)97% (Jul 9, 1:51 am)30.17 "Hg (Jul 9, 1:51 am)
Low68 °F (Jul 19, 4:51 am)33% (Jul 20, 3:51 pm)29.83 "Hg (Jul 23, 4:51 am)
Average82 °F71%30.02 "Hg
* Reported Jul 8 8:51 am — Jul 23 8:51 am, Raleigh. Weather by CustomWeather, © 2017

Note: Actual official high and low records may vary slightly from our data, if they occured in-between our weather recording intervals... More about our weather records

Advertising

Raleigh Weather History for the Previous 24 Hours

Scroll right to see more
 ConditionsComfort  
Time TempWeatherWind HumidityBarometerVisibility
8:51 am
Sun, Jul 23
84 °FPartly sunny.10 mph74%29.87 "Hg10 mi
7:51 am82 °FScattered clouds.14 mph77%29.86 "Hg10 mi
6:51 am79 °FPassing clouds.9 mph84%29.84 "Hg10 mi
5:51 am79 °FPassing clouds.7 mph84%29.84 "Hg10 mi
4:51 am80 °FPassing clouds.7 mph79%29.83 "Hg10 mi
3:51 am81 °FPassing clouds.9 mph77%29.83 "Hg10 mi
2:51 am81 °FPassing clouds.10 mph77%29.84 "Hg10 mi
1:51 am83 °FPassing clouds.15 mph72%29.85 "Hg10 mi
12:51 am83 °FPassing clouds.10 mph72%29.87 "Hg10 mi
11:51 pm
Sat, Jul 22
85 °FPassing clouds.12 mph65%29.88 "Hg10 mi
10:51 pm86 °FPassing clouds.14 mph63%29.87 "Hg10 mi
9:51 pm87 °FPassing clouds.15 mph61%29.87 "Hg10 mi
8:51 pm89 °FPassing clouds.14 mph59%29.86 "Hg10 mi
7:51 pm92 °FScattered clouds.13 mph52%29.84 "Hg10 mi
6:51 pm95 °FBroken clouds.16 mph47%29.84 "Hg10 mi
5:51 pm97 °FBroken clouds.16 mph43%29.83 "Hg10 mi
4:51 pm99 °FBroken clouds.14 mph43%29.85 "Hg10 mi
3:51 pm96 °FBroken clouds.16 mph47%29.87 "Hg10 mi
2:51 pm99 °FScattered clouds.14 mph41%29.89 "Hg10 mi
1:51 pm96 °FScattered clouds.13 mph46%29.91 "Hg10 mi
12:51 pm95 °FPassing clouds.7 mph49%29.95 "Hg10 mi
11:51 am93 °FPassing clouds.8 mph56%29.96 "Hg10 mi
10:51 am91 °FScattered clouds.9 mph61%29.97 "Hg10 mi
Weather by CustomWeather, © 2017

See weather overviewHow to use our weather pages